Weather History for Moline, IL

Change the Weather History Date:

Thursday, December 1, 2011

  Actual Average Record
Temperature  
Mean Temperature 36 °F 32 °F  
Max Temperature 45 °F 40 °F 63 °F (1962)
Min Temperature 27 °F 23 °F -8 °F (1893)
Degree Days  
Heating Degree Days 29 33  
Month to date heating degree days 29 33  
Since 1 July heating degree days 1197 1264  
Cooling Degree Days 0 0  
Month to date cooling degree days 0 0  
Year to date cooling degree days 1126 1004  
Moisture  
Dew Point 25 °F    
Average Humidity 69    
Maximum Humidity 96    
Minimum Humidity 41    
Precipitation  
Precipitation 0.02 in 0.09 in 1.52 in (1985)
Month to date precipitation 0.02 0.09  
Year to date precipitation 32.19 35.87  
Snow  
Snow T in 0.20 in - ()
Month to date snowfall T 0.2  
Since 1 July snowfall 0.3 1.4  
Snow Depth 0.00 in    
Sea Level Pressure  
Sea Level Pressure 30.26 in    
Wind  
Wind Speed 5 mph (NW)    
Max Wind Speed 15 mph    
Max Gust Speed 17 mph    
Visibility 9 miles    
Events      
T = Trace of Precipitation, MM = Missing Value Source: NWS Daily Summary

Daily Weather History Graph

Daily Weather History Graph

Search for Another Location

Airport:

Trip Planner

Search our weather history database for the weather conditions in past years. The results will help you decide how hot, cold, wet, or windy it might be!

Date:

Astronomy

Dec. 01, 2011 Rise Set
Actual Time 7:08 AM CST 4:33 PM CST
Civil Twilight 6:37 AM CST 5:04 PM CST
Nautical Twilight 6:03 AM CST 5:38 PM CST
Astronomical Twilight 5:30 AM CST 6:11 PM CST
Moon 11:51 AM CST (12/1) 11:35 PM CST (12/1)
Length of Visible Light 10h 26m
Length of Day
9h 24m
Waxing Crescent, 43% of the Moon is Illuminated
Dec 1
Waxing Crescent
Dec 2
First Quarter
Dec 10
Full
Dec 17
Last Quarter
Dec 24
New

Hourly Weather History & Observations

Time (CST) Temp. Windchill Dew Point Humidity Pressure Visibility Wind Dir Wind Speed Gust Speed Precip Events Conditions
12:52 AM 33.1 °F 28.7 °F 19.9 °F 59% 30.16 in 10.0 mi South 4.6 mph - N/A   Clear
1:52 AM 32.0 °F 27.5 °F 19.9 °F 61% 30.17 in 10.0 mi South 4.6 mph - N/A   Clear
2:52 AM 30.9 °F - 19.9 °F 64% 30.17 in 10.0 mi Calm Calm - N/A   Clear
3:52 AM 30.0 °F - 21.0 °F 69% 30.17 in 10.0 mi Calm Calm - N/A   Clear
4:52 AM 30.0 °F - 21.9 °F 72% 30.19 in 10.0 mi Calm Calm - N/A   Clear
5:52 AM 28.9 °F - 21.0 °F 72% 30.19 in 10.0 mi Calm Calm - N/A   Clear
6:52 AM 30.2 °F 26.7 °F 21.2 °F 69% 30.19 in 10.0 mi Variable 3.5 mph - N/A   Clear
7:52 AM 30.9 °F 27.5 °F 24.1 °F 76% 30.23 in 10.0 mi South 3.5 mph - N/A   Clear
8:52 AM 35.1 °F 31.0 °F 25.0 °F 67% 30.24 in 10.0 mi SSW 4.6 mph - N/A   Clear
9:52 AM 39.0 °F 34.0 °F 25.0 °F 57% 30.25 in 10.0 mi SW 6.9 mph - N/A   Clear
10:52 AM 43.0 °F 40.3 °F 24.1 °F 47% 30.25 in 10.0 mi WSW 4.6 mph - N/A   Clear
11:52 AM 43.0 °F 40.3 °F 23.0 °F 45% 30.24 in 10.0 mi WNW 4.6 mph - N/A   Overcast
12:52 PM 43.0 °F 40.3 °F 23.0 °F 45% 30.23 in 10.0 mi West 4.6 mph - N/A   Overcast
1:52 PM 44.1 °F - 23.0 °F 43% 30.23 in 10.0 mi Calm Calm - N/A   Scattered Clouds
2:52 PM 44.6 °F 41.4 °F 24.8 °F 46% 30.22 in 10.0 mi WNW 5.8 mph - N/A   Clear
3:52 PM 42.1 °F 36.6 °F 23.0 °F 47% 30.27 in 10.0 mi NNW 9.2 mph - N/A   Mostly Cloudy
4:52 PM 39.9 °F 35.8 °F 24.1 °F 53% 30.27 in 10.0 mi NNE 5.8 mph - N/A   Scattered Clouds
5:52 PM 39.9 °F 36.7 °F 24.1 °F 53% 30.30 in 10.0 mi NNW 4.6 mph - N/A   Overcast
6:52 PM 39.9 °F 37.8 °F 24.1 °F 53% 30.31 in 10.0 mi NNW 3.5 mph - N/A   Overcast
7:52 PM 37.9 °F 30.9 °F 28.9 °F 70% 30.32 in 10.0 mi North 10.4 mph - N/A   Overcast
8:52 PM 37.4 °F 29.8 °F 32.0 °F 81% 30.33 in 9.0 mi NNW 11.5 mph - N/A   Overcast
9:34 PM 35.6 °F 29.9 °F 32.0 °F 87% 30.34 in 5.0 mi NNW 6.9 mph - 0.00 in   Overcast
9:52 PM 34.0 °F 28.0 °F 32.0 °F 92% 30.36 in 5.0 mi NNW 6.9 mph - 0.01 in   Overcast
10:52 PM 34.0 °F 27.2 °F 32.0 °F 92% 30.38 in 7.0 mi North 8.1 mph - 0.01 in   Overcast
10:59 PM 33.8 °F 27.7 °F 32.0 °F 93% 30.36 in 7.0 mi NNW 6.9 mph - N/A   Overcast
11:11 PM 33.8 °F 27.7 °F 32.0 °F 93% 30.37 in 6.0 mi NNW 6.9 mph - N/A   Overcast
11:52 PM 34.0 °F 26.0 °F 32.0 °F 92% 30.38 in 9.0 mi NNW 10.4 mph - 0.00 in   Overcast